Powrót do katalogu

STARLINK-5074

AktywnyŁącznośćVLEO
NORAD 55438·PAYLOAD·🇺🇸 United States

Wystrzelony Jan 31, 2023 z Vandenberg Space Force Base

Loading…

Następne Przeloty (najbliższe 24 godziny)

TLE

ŚwieżeSource: CelesTrak SupGP

Epoka: Sep 15, 2026, 02:15 UTC

1 55438C 23014AZ  26258.09423611  .00034073  00000+0  28553-2 0  2583
2 55438  69.9994 306.7278 0003726 267.3113   0.2029 14.98313150    16

Śledź STARLINK-5074 w czasie rzeczywistym z AllMySat

Download on the App Store